G4MDP-13 Weather Reports


time (UTC)temp
C
wind
direction
speed
KPH
gust
KPH
rain 1hr
cm
rain 24hr
cm
rain mn
cm
humidity
%
barometer
mb
20260507064917 10 156 6.4 9.7 0.00 0.00 0.00 80 1015.8
20260507063517 10 152 6.4 11.3 0.00 0.00 0.00 82 1015.7
20260507063417 10 151 6.4 11.3 0.00 0.00 0.00 82 1015.7
20260507061917 8 153 6.4 8.0 0.00 0.00 0.00 87 1009.9
20260507060517 8 152 6.4 8.0 0.00 0.00 0.00 88 1009.7
20260507060417 8 152 6.4 8.0 0.00 0.00 0.00 88 1009.7
20260507054917 7 151 6.4 9.7 0.00 0.00 0.00 89 1015.6
20260507053517 7 148 6.4 8.0 0.00 0.00 0.00 89 1015.5
20260507053417 7 147 6.4 8.0 0.00 0.00 0.00 89 1015.5
20260507051917 7 151 8.0 9.7 0.00 0.00 0.00 88 1015.5
20260507050517 7 145 6.4 9.7 0.00 0.00 0.00 88 1009.4
20260507050417 7 143 6.4 8.0 0.00 0.00 0.00 88 1009.4
20260507044917 7 141 6.4 9.7 0.00 0.00 0.00 88 1009.6
20260507043517 7 147 6.4 8.0 0.00 0.00 0.00 87 1015.1
20260507043417 7 146 6.4 8.0 0.00 0.00 0.00 87 1015.2
20260507041917 7 139 6.4 8.0 0.00 0.00 0.00 87 1015.3
20260507040517 7 142 6.4 8.0 0.00 0.00 0.00 87 1009.1
20260507040417 7 142 6.4 8.0 0.00 0.00 0.00 87 1009.1
20260507034917 7 131 6.4 9.7 0.00 0.00 0.00 87 1009.3
20260507033517 7 133 6.4 9.7 0.00 0.00 0.00 88 1009.1
20260507033417 7 133 6.4 9.7 0.00 0.00 0.00 88 1009.1
20260507031917 7 139 6.4 8.0 0.00 0.00 0.00 87 1009.2
20260507030517 7 134 6.4 9.7 0.00 0.00 0.00 87 1015.2
20260507030417 7 136 6.4 9.7 0.00 0.00 0.00 87 1015.0
20260507024917 7 136 6.4 9.7 0.00 0.00 0.00 86 1009.0
20260507023517 7 138 6.4 8.0 0.00 0.00 0.00 85 1014.9
20260507023417 7 137 6.4 8.0 0.00 0.00 0.00 85 1015.0
20260507021917 7 146 6.4 9.7 0.00 0.00 0.00 85 1008.9
20260507020517 7 147 6.4 8.0 0.00 0.00 0.00 84 1014.9
20260507020417 7 147 6.4 8.0 0.00 0.00 0.00 84 1014.8
20260507014917 8 147 6.4 8.0 0.00 0.00 0.00 83 1008.7
20260507013517 8 148 6.4 8.0 0.00 0.00 0.00 82 1014.9
20260507013417 8 149 6.4 8.0 0.00 0.00 0.00 82 1014.7
20260507011917 8 149 6.4 8.0 0.00 0.00 0.00 81 1008.7
20260507010517 8 148 6.4 8.0 0.00 0.00 0.00 80 1008.7
20260507010417 8 147 6.4 8.0 0.00 0.00 0.00 80 1008.7
20260507004917 9 148 6.4 8.0 0.00 0.00 0.00 79 1008.9
20260507003517 9 146 6.4 8.0 0.00 0.00 0.00 77 1008.9
20260507003417 9 145 6.4 8.0 0.00 0.00 0.00 77 1008.9
20260507001917 10 146 6.4 8.0 0.00 0.00 0.00 77 1008.7
20260507000517 10 150 6.4 8.0 0.00 0.00 0.00 76 1014.8
20260507000417 10 149 6.4 8.0 0.00 0.00 0.00 75 1015.0
20260506234917 10 149 6.4 8.0 0.00 0.00 0.00 73 1015.0
20260506233517 10 150 6.4 8.0 0.00 0.00 0.00 72 1009.0
20260506233417 10 150 6.4 9.7 0.00 0.00 0.00 72 1014.8
20260506231917 10 152 8.0 9.7 0.00 0.00 0.00 72 1014.7
20260506230517 10 153 6.4 9.7 0.00 0.00 0.00 71 1014.7
20260506230417 10 153 6.4 9.7 0.00 0.00 0.00 71 1014.7
20260506224917 10 154 6.4 8.0 0.00 0.00 0.00 71 1014.7
20260506223517 10 155 6.4 8.0 0.00 0.00 0.00 71 1008.8
20260506223417 10 155 6.4 8.0 0.00 0.00 0.00 71 1008.8
20260506221917 11 154 6.4 8.0 0.00 0.00 0.00 71 1014.7
20260506220517 11 152 6.4 9.7 0.00 0.00 0.00 70 1008.4
20260506220417 11 151 6.4 9.7 0.00 0.00 0.00 70 1008.4
20260506214917 11 153 6.4 9.7 0.00 0.00 0.00 69 1008.5
20260506213517 11 155 6.4 9.7 0.00 0.00 0.00 69 1008.5
20260506213417 11 155 6.4 9.7 0.00 0.00 0.00 69 1008.5
20260506211917 11 154 8.0 9.7 0.00 0.00 0.00 68 1008.4
20260506210517 11 148 6.4 9.7 0.00 0.00 0.00 68 1008.2
20260506210417 11 148 8.0 9.7 0.00 0.00 0.00 68 1008.4
20260506204917 11 152 6.4 8.0 0.00 0.00 0.00 68 1008.3
20260506203517 11 154 6.4 9.7 0.00 0.00 0.00 67 1007.9
20260506203417 11 153 6.4 9.7 0.00 0.00 0.00 67 1008.3
20260506201917 11 154 6.4 9.7 0.00 0.00 0.00 67 1008.0
20260506200517 12 155 6.4 9.7 0.00 0.00 0.00 66 1007.9
20260506200417 12 154 6.4 9.7 0.00 0.00 0.00 66 1007.9
20260506194917 12 150 6.4 9.7 0.00 0.00 0.00 64 1007.7
20260506193517 12 150 6.4 8.0 0.00 0.00 0.00 64 1007.5
20260506193417 12 150 6.4 8.0 0.00 0.00 0.00 64 1007.7
20260506191917 12 144 6.4 8.0 0.00 0.00 0.00 62 1013.4
20260506190517 12 146 6.4 8.0 0.00 0.00 0.00 61 1013.5
20260506190417 12 146 6.4 8.0 0.00 0.00 0.00 61 1013.5
20260506184917 12 150 6.4 8.0 0.00 0.00 0.00 61 1007.2
20260506183517 12 146 6.4 8.0 0.00 0.00 0.00 61 1006.9
20260506183417 12 149 6.4 8.0 0.00 0.00 0.00 60 1006.9
20260506181917 12 134 4.8 9.7 0.00 0.00 0.00 59 1006.9
20260506180517 12 140 4.8 8.0 0.00 0.00 0.00 58 1006.9
20260506180417 12 138 4.8 8.0 0.00 0.00 0.00 58 1006.6
20260506174917 13 144 6.4 9.7 0.00 0.00 0.00 57 1006.5
20260506173517 13 149 6.4 9.7 0.00 0.00 0.00 55 1006.4
20260506173417 13 148 6.4 9.7 0.00 0.00 0.00 55 1006.4
20260506171917 13 144 6.4 9.7 0.00 0.00 0.00 55 1006.4
20260506170517 13 147 4.8 8.0 0.00 0.00 0.00 55 1012.7
20260506170417 13 147 6.4 8.0 0.00 0.00 0.00 55 1012.5
20260506164917 13 133 4.8 9.7 0.00 0.00 0.00 54 1006.3
20260506163517 13 151 4.8 9.7 0.00 0.00 0.00 55 1006.4
20260506163417 13 151 4.8 9.7 0.00 0.00 0.00 54 1006.5
20260506161917 13 142 4.8 9.7 0.00 0.00 0.00 53 1006.1
20260506160517 13 143 4.8 8.0 0.00 0.00 0.00 53 1006.3
20260506160417 13 143 4.8 8.0 0.00 0.00 0.00 53 1006.4
20260506154917 14 146 4.8 9.7 0.00 0.00 0.00 52 1006.4
20260506153517 14 136 6.4 9.7 0.00 0.00 0.00 46 1006.3
20260506153417 14 137 4.8 9.7 0.00 0.00 0.00 46 1006.3
20260506151917 14 134 4.8 9.7 0.00 0.00 0.00 48 1006.4
20260506150517 15 145 4.8 12.9 0.00 0.00 0.00 44 1006.1
20260506150417 15 146 4.8 12.9 0.00 0.00 0.00 44 1006.1
20260506144917 14 132 4.8 9.7 0.00 0.00 0.00 44 1006.3
20260506143517 15 139 4.8 9.7 0.00 0.00 0.00 44 1006.3
20260506143417 15 145 4.8 9.7 0.00 0.00 0.00 44 1006.3
20260506141917 15 148 4.8 8.0 0.00 0.00 0.00 44 1006.1
20260506140517 15 134 4.8 8.0 0.00 0.00 0.00 44 1006.3
20260506140417 15 138 4.8 8.0 0.00 0.00 0.00 44 1006.3
20260506134917 14 121 4.8 9.7 0.00 0.00 0.00 45 1006.3
20260506133517 15 143 4.8 8.0 0.00 0.00 0.00 43 1006.3
20260506133417 15 136 4.8 8.0 0.00 0.00 0.00 43 1006.3
20260506131917 16 140 4.8 9.7 0.00 0.00 0.00 42 1006.5
20260506130517 16 143 4.8 9.7 0.00 0.00 0.00 42 1006.3
20260506130417 16 146 4.8 9.7 0.00 0.00 0.00 42 1006.3
20260506124917 16 153 4.8 11.3 0.00 0.00 0.00 43 1006.2
20260506123517 14 129 6.4 14.5 0.00 0.00 0.00 45 1006.5
20260506123417 13 131 4.8 14.5 0.00 0.00 0.00 45 1006.5
20260506121917 15 140 4.8 9.7 0.00 0.00 0.00 45 1006.3
20260506120517 14 118 4.8 9.7 0.00 0.00 0.00 44 1006.4
20260506120417 14 120 4.8 9.7 0.00 0.00 0.00 45 1006.5
20260506114917 14 131 4.8 9.7 0.00 0.00 0.00 47 1006.2
20260506113517 15 132 4.8 11.3 0.00 0.00 0.00 47 1006.4
20260506113417 15 138 4.8 11.3 0.00 0.00 0.00 47 1006.6
20260506111917 15 146 4.8 9.7 0.00 0.00 0.00 48 1006.6
20260506110517 14 135 6.4 9.7 0.00 0.00 0.00 46 1006.5
20260506110417 14 133 6.4 9.7 0.00 0.00 0.00 48 1006.6
20260506104917 14 141 4.8 9.7 0.00 0.00 0.00 49 1006.6
20260506103517 15 163 4.8 8.0 0.00 0.00 0.00 49 1006.7
20260506103417 15 164 4.8 8.0 0.00 0.00 0.00 48 1006.6
20260506101917 13 139 4.8 8.0 0.00 0.00 0.00 50 1006.7
20260506100517 13 147 4.8 9.7 0.00 0.00 0.00 52 1006.8
20260506100417 13 148 4.8 9.7 0.00 0.00 0.00 52 1006.7
20260506093517 13 149 6.4 9.7 0.00 0.00 0.00 53 1006.9
20260506093417 13 151 6.4 9.7 0.00 0.00 0.00 54 1006.7
20260506091917 12 114 4.8 9.7 0.00 0.00 0.00 54 1006.8
20260506090517 12 143 6.4 9.7 0.00 0.00 0.00 57 1006.8
20260506090417 12 145 6.4 9.7 0.00 0.00 0.00 57 1006.9
20260506084917 11 129 6.4 9.7 0.00 0.00 0.00 61 1006.6
20260506083517 11 145 4.8 9.7 0.00 0.00 0.00 61 1007.0
20260506083417 11 147 6.4 9.7 0.00 0.00 0.00 61 1006.9
20260506081917 10 141 4.8 9.7 0.00 0.00 0.00 65 1006.7
20260506080517 11 152 6.4 9.7 0.00 0.00 0.00 67 1012.6
20260506080417 10 153 6.4 9.7 0.00 0.00 0.00 67 1012.8
20260506073517 10 149 6.4 9.7 0.00 0.00 0.00 70 1006.6
20260506073417 10 150 6.4 9.7 0.00 0.00 0.00 70 1006.6
20260506071917 10 136 4.8 8.0 0.00 0.00 0.00 73 1006.8
20260506070517 9 135 4.8 9.7 0.00 0.00 0.00 75 1006.6
20260506070417 9 138 4.8 9.7 0.00 0.00 0.00 76 1006.6